Ludington, MI

5:49 AM EDT on May 21, 2018 (GMT -0400)
Mason County

Weather History for KLDM - August, 2013

Change the Weather History Date:

Monday, August 12, 2013

  Actual Average Record
Temperature  
Mean Temperature 65 °F -  
Max Temperature 75 °F 78 °F 97 °F (1988)
Min Temperature 55 °F 54 °F 37 °F (1967)
Growing Degree Days 15 (Base 50)    
Moisture  
Dew Point 59 °F    
Average Humidity 77    
Maximum Humidity 94    
Minimum Humidity 59    
Precipitation  
Precipitation 0.00 in - - ()
Sea Level Pressure  
Sea Level Pressure 29.97 in    
Wind  
Wind Speed 2 mph (WNW)    
Max Wind Speed 13 mph    
Max Gust Speed 20 mph    
Visibility 9 miles    
Events Fog , Rain    
Averages and records for this station are not official NWS values.
T = Trace of Precipitation, MM = Missing Value Source: NWS Daily Summary

Daily Weather History Graph

Daily Weather History Graph

Search for Another Location

Airport or City:

Astronomy

Aug. 12, 2013 Rise Set
Actual Time 6:46 AM EDT 8:53 PM EDT
Civil Twilight 6:14 AM EDT 9:25 PM EDT
Nautical Twilight 5:35 AM EDT 10:04 PM EDT
Astronomical Twilight 4:52 AM EDT 10:46 PM EDT
Moon 12:51 PM EDT (8/12) 11:31 PM EDT (8/12)
Length of Visible Light 15h 10m
Length of Day
14h 07m
Waxing Crescent, 31% of the Moon is Illuminated
Aug 12
Waxing Crescent
Aug 14
First Quarter
Aug 20
Full
Aug 28
Last Quarter
Sep 5
New

Hourly Weather History & Observations

Time (EDT) Temp. Dew Point Humidity Pressure Visibility Wind Dir Wind Speed Gust Speed Precip Events Conditions
12:16 AM 64.4 °F 60.8 °F 88% 30.06 in 10.0 mi Calm Calm - N/A   Overcast
12:36 AM 64.4 °F 60.8 °F 88% 30.05 in 10.0 mi Calm Calm - N/A   Overcast
12:56 AM 64.4 °F 59.0 °F 83% 30.05 in 10.0 mi Calm Calm - N/A   Overcast
1:16 AM 62.6 °F 59.0 °F 88% 30.05 in 10.0 mi Calm Calm - N/A   Overcast
1:36 AM 62.6 °F 59.0 °F 88% 30.05 in 10.0 mi Calm Calm - N/A   Overcast
1:56 AM 62.6 °F 59.0 °F 88% 30.04 in 10.0 mi Calm Calm - N/A   Overcast
2:16 AM 62.6 °F 59.0 °F 88% 30.04 in 10.0 mi Calm Calm - N/A   Overcast
2:36 AM 62.6 °F 59.0 °F 88% 30.04 in 10.0 mi Calm Calm - N/A   Overcast
2:57 AM 62.6 °F 59.0 °F 88% 30.03 in 10.0 mi Calm Calm - N/A   Overcast
3:16 AM 62.6 °F 59.0 °F 88% 30.03 in 10.0 mi Calm Calm - N/A   Overcast
3:36 AM 62.6 °F 59.0 °F 88% 30.03 in 10.0 mi Calm Calm - N/A   Overcast
3:57 AM 62.6 °F 59.0 °F 88% 30.03 in 10.0 mi Calm Calm - N/A   Mostly Cloudy
4:17 AM 60.8 °F 57.2 °F 88% 30.03 in 10.0 mi Calm Calm - N/A   Scattered Clouds
4:37 AM 60.8 °F 57.2 °F 88% 30.02 in 0.2 mi Calm Calm - N/A Fog Fog
4:56 AM 60.8 °F 57.2 °F 88% 30.02 in 0.2 mi Calm Calm - N/A Fog Fog
5:16 AM 57.2 °F 55.4 °F 94% 30.02 in 0.2 mi Calm Calm - N/A Fog Fog
5:36 AM 57.2 °F 55.4 °F 94% 30.02 in 0.5 mi Calm Calm - N/A Fog Fog
5:56 AM 57.2 °F 55.4 °F 94% 30.02 in 0.5 mi Calm Calm - N/A Fog Fog
6:17 AM 57.2 °F 55.4 °F 94% 30.01 in 1.2 mi Calm Calm - N/A   Mostly Cloudy
6:36 AM 57.2 °F 53.6 °F 88% 30.00 in 5.0 mi Calm Calm - N/A   Mostly Cloudy
6:56 AM 55.4 °F 53.6 °F 94% 30.01 in 0.8 mi Calm Calm - N/A   Overcast
7:16 AM 57.2 °F 55.4 °F 94% 30.00 in 1.8 mi Calm Calm - N/A   Mostly Cloudy
7:36 AM 57.2 °F 55.4 °F 94% 30.00 in 4.0 mi Calm Calm - N/A   Scattered Clouds
7:56 AM 57.2 °F 55.4 °F 94% 30.00 in 2.5 mi Calm Calm - N/A   Clear
8:16 AM 60.8 °F 57.2 °F 88% 29.99 in 7.0 mi Calm Calm - N/A   Clear
8:36 AM 60.8 °F 59.0 °F 94% 29.99 in 10.0 mi Calm Calm - N/A   Clear
8:56 AM 64.4 °F 60.8 °F 88% 29.99 in 10.0 mi Calm Calm - N/A   Scattered Clouds
9:16 AM 68.0 °F 60.8 °F 78% 29.99 in 10.0 mi Calm Calm - N/A   Mostly Cloudy
9:37 AM 69.8 °F 64.4 °F 83% 29.98 in 10.0 mi Calm Calm - N/A   Scattered Clouds
9:57 AM 69.8 °F 64.4 °F 83% 29.97 in 10.0 mi Calm Calm - N/A   Scattered Clouds
10:17 AM 69.8 °F 62.6 °F 78% 29.97 in 10.0 mi Calm Calm - N/A   Mostly Cloudy
10:37 AM 69.8 °F 60.8 °F 73% 29.97 in 10.0 mi Calm Calm - N/A   Scattered Clouds
10:57 AM 72.9 °F 62.4 °F 70% 29.97 in 10.0 mi Calm Calm - N/A   Scattered Clouds
11:15 AM 70.3 °F 61.7 °F 74% 29.97 in 10.0 mi Calm Calm - N/A   Clear
11:35 AM 72.9 °F 62.2 °F 69% 29.97 in 10.0 mi Calm Calm - N/A   Scattered Clouds
11:55 AM 75.4 °F 64.6 °F 69% 29.97 in 10.0 mi West 5.8 mph - N/A   Scattered Clouds
12:15 PM 75.4 °F 64.4 °F 69% 29.96 in 10.0 mi West 5.8 mph - N/A   Clear
12:35 PM 75.4 °F 63.7 °F 67% 29.97 in 10.0 mi West 5.8 mph - N/A   Clear
12:54 PM 75.4 °F 63.1 °F 66% 29.96 in 10.0 mi West 5.8 mph - N/A   Clear
1:15 PM 75.4 °F 62.1 °F 63% 29.95 in 10.0 mi West 8.1 mph - N/A   Clear
1:34 PM 75.4 °F 62.6 °F 64% 29.95 in 10.0 mi WSW 9.2 mph - N/A   Clear
1:55 PM 75.4 °F 63.3 °F 66% 29.96 in 10.0 mi West 8.1 mph - N/A   Clear
2:15 PM 75.4 °F 63.9 °F 67% 29.95 in 10.0 mi West 5.8 mph - N/A   Clear
2:35 PM 75.4 °F 61.9 °F 63% 29.95 in 10.0 mi West 5.8 mph - N/A   Clear
2:47 PM 75.4 °F 60.6 °F 60% 29.94 in 10.0 mi West 6.9 mph - N/A   Clear
3:15 PM 75.4 °F 60.1 °F 59% 29.94 in 10.0 mi West 6.9 mph - N/A   Clear
3:33 PM 75.4 °F 60.1 °F 59% 29.93 in 10.0 mi WNW 5.8 mph - N/A   Clear
3:55 PM 75.4 °F 60.6 °F 60% 29.93 in 10.0 mi West 5.8 mph - N/A   Clear
4:15 PM 75.4 °F 61.7 °F 62% 29.92 in 10.0 mi WSW 8.1 mph - N/A   Clear
4:35 PM 75.4 °F 60.1 °F 59% 29.92 in 10.0 mi WSW 6.9 mph - N/A   Clear
4:55 PM 75.4 °F 61.2 °F 61% 29.91 in 10.0 mi West 5.8 mph - N/A   Clear
5:15 PM 75.4 °F 60.8 °F 60% 29.91 in 10.0 mi West 3.5 mph - N/A   Clear
5:36 PM 75.2 °F 60.8 °F 61% 29.91 in 10.0 mi West 4.6 mph - N/A   Clear
5:40 PM 75.4 °F 61.2 °F 61% 29.91 in 10.0 mi West 6.9 mph - N/A   Clear
5:55 PM 75.4 °F 61.5 °F 62% 29.91 in 10.0 mi West 4.6 mph - N/A   Scattered Clouds
6:15 PM 71.8 °F 61.2 °F 69% 29.91 in 10.0 mi West 5.8 mph - N/A   Mostly Cloudy
6:35 PM 70.3 °F 60.3 °F 70% 29.91 in 10.0 mi West 3.5 mph - N/A   Overcast
6:55 PM 70.3 °F 60.6 °F 71% 29.89 in 10.0 mi WSW 5.8 mph - N/A   Overcast
7:15 PM 70.3 °F 60.4 °F 71% 29.89 in 10.0 mi West 3.5 mph - N/A   Mostly Cloudy
7:35 PM 70.3 °F 59.9 °F 69% 29.90 in 10.0 mi NW 3.5 mph - N/A   Mostly Cloudy
7:55 PM 70.3 °F 62.6 °F 76% 29.89 in 10.0 mi NW 3.5 mph - N/A   Mostly Cloudy
8:15 PM 70.3 °F 63.9 °F 80% 29.90 in 10.0 mi WNW 3.5 mph - N/A   Overcast
8:35 PM 70.3 °F 61.5 °F 74% 29.92 in 10.0 mi North 11.5 mph 18.4 mph N/A   Overcast
8:55 PM 67.8 °F 58.3 °F 71% 29.93 in 10.0 mi North 12.7 mph - N/A   Mostly Cloudy
9:15 PM 65.3 °F 56.5 °F 73% 29.94 in 10.0 mi North 10.4 mph 18.4 mph N/A Rain Light Rain
9:35 PM 63.5 °F 57.2 °F 80% 29.94 in 10.0 mi North 10.4 mph - N/A Rain Light Rain
9:38 PM 63.5 °F 57.4 °F 80% 29.94 in 10.0 mi North 9.2 mph - N/A Rain Light Rain
10:15 PM 63.5 °F 58.1 °F 83% 29.95 in 10.0 mi North 6.9 mph - N/A   Light Drizzle
10:35 PM 63.5 °F 57.2 °F 80% 29.95 in 10.0 mi North 10.4 mph 16.1 mph N/A   Overcast
10:55 PM 62.8 °F 55.9 °F 78% 29.96 in 10.0 mi North 5.8 mph - N/A   Mostly Cloudy
11:15 PM 61.7 °F 54.0 °F 76% 29.97 in 10.0 mi North 10.4 mph 19.6 mph N/A   Scattered Clouds
11:35 PM 60.3 °F 51.1 °F 72% 29.97 in 10.0 mi North 10.4 mph 17.3 mph N/A   Clear
11:55 PM 60.3 °F 51.8 °F 74% 29.97 in 10.0 mi NNE 8.1 mph - N/A   Clear